GS0511 Weather Reports


Display with metric or nautical units.
time (UTC)temp
F
wind
direction
speed
MPH
gust
MPH
rain 1hr
in
rain 24hr
in
rain mn
in
humidity
%
barometer
mb
20260505082958 57 174 1.0 2.0 0.01 0.02 0.02 89 1002.9
20260505081458 57 157 0.0 2.0 0.01 0.02 0.02 88 1003.0
20260505080002 58 189 1.0 3.0 0.01 0.02 0.02 87 1003.1
20260505074459 58 189 1.0 4.0 0.01 0.01 0.01 86 1003.3
20260505072959 59 250 2.0 5.0 0.01 0.01 0.01 86 1003.6
20260505071458 59 208 2.0 6.0 0.01 0.01 0.01 86 1004.0
20260505070001 60 173 4.0 9.0 0.01 0.01 0.01 84 1003.6
20260505064458 61 213 8.0 18.0 0.00 0.00 0.00 80 1003.7
20260505062958 61 184 3.0 13.0 0.00 0.00 0.00 76 1003.8
20260505060001 61 157 2.0 6.0 0.00 0.00 0.00 74 1003.7
20260505054458 62 187 3.0 7.0 0.00 0.00 0.00 73 1003.7
20260505051459 63 150 4.0 9.0 0.00 0.00 0.00 70 1003.9
20260505041458 63 200 3.0 8.0 0.00 0.00 0.00 66 1003.9
20260505040006 63 190 4.0 8.0 0.00 0.00 0.00 66 1004.1
20260505034501 63 219 4.0 10.0 0.00 0.00 0.00 65 1004.1
20260505033001 62 192 3.0 9.0 0.00 0.00 0.00 64 1004.2
20260505030005 58 202 1.0 15.0 0.00 0.00 0.00 65 1004.7
20260505024502 57 210 0.0 0.0 0.00 0.00 0.00 71 1004.0
20260505023001 57 210 0.0 0.0 0.00 0.00 0.00 72 1003.9
20260505021501 58 210 0.0 0.0 0.00 0.00 0.00 70 1003.8
20260505020008 58 210 0.0 1.0 0.00 0.00 0.00 68 1004.0
20260505014501 59 210 0.0 1.0 0.00 0.00 0.00 64 1004.1
20260505011501 60 210 0.0 0.0 0.00 0.00 0.00 59 1004.0
20260505010007 61 210 0.0 1.0 0.00 0.00 0.00 58 1003.9
20260505003001 65 210 0.0 1.0 0.00 0.00 0.00 51 1004.0
20260505001501 67 210 0.0 2.0 0.00 0.00 0.00 47 1004.0
20260504234501 69 205 2.0 4.0 0.00 0.00 0.00 44 1004.0
20260504233002 70 271 1.0 4.0 0.00 0.00 0.00 44 1004.0
20260504230005 72 267 3.0 7.0 0.00 0.00 0.00 40 1003.9
20260504224502 72 325 6.0 10.0 0.00 0.00 0.00 39 1003.9
20260504223001 73 261 5.0 11.0 0.00 0.00 0.00 37 1003.7
20260504221502 74 308 4.0 9.0 0.00 0.00 0.00 39 1003.6
20260504220007 74 289 4.0 7.0 0.00 0.00 0.00 38 1003.6
20260504214500 74 266 4.0 12.0 0.00 0.00 0.00 38 1003.7
20260504213000 74 183 5.0 11.0 0.00 0.00 0.00 39 1004.0
20260504210004 74 251 6.0 16.0 0.00 0.00 0.00 38 1003.8
20260504204500 74 215 6.0 10.0 0.00 0.00 0.00 41 1003.9
20260504203000 73 225 7.0 14.0 0.00 0.00 0.00 41 1004.1
20260504201500 74 277 6.0 11.0 0.00 0.00 0.00 41 1004.2
20260504194500 73 223 7.0 18.0 0.00 0.00 0.00 41 1004.7
20260504193000 73 229 8.0 17.0 0.00 0.00 0.00 42 1004.9
20260504191500 73 234 7.0 15.0 0.00 0.00 0.00 43 1005.1
20260504190004 72 166 7.0 11.0 0.00 0.00 0.00 46 1005.4
20260504184500 72 250 7.0 13.0 0.00 0.00 0.00 45 1005.4
20260504183000 71 250 7.0 13.0 0.00 0.00 0.00 44 1005.7
20260504181500 71 271 8.0 17.0 0.00 0.00 0.00 47 1005.8
20260504180003 70 185 9.0 17.0 0.00 0.00 0.00 46 1005.9
20260504174500 70 212 7.0 13.0 0.00 0.00 0.00 49 1006.0
20260504173000 69 229 6.0 13.0 0.00 0.00 0.00 51 1006.1
20260504171500 68 225 7.0 15.0 0.00 0.00 0.00 51 1006.3